Regional Weather Roundup
Issued by NWS Wakefield, VA

Home | Current Version | Previous Version | Graphics & Text | Print | Product List | Glossary On
Versions: 1 2 3 4 5 6 7 8 9 10 11 12 13 14 15 16 17 18 19 20 21 22 23 24 25 26 27 28 29 30 31 32 33 34 35 36 37 38 39 40 41 42 43 44 45 46 47 48 49 50
000
ASUS41 KAKQ 281810
RWRAKQ

REGIONAL WEATHER ROUNDUP
NATIONAL WEATHER SERVICE WAKEFIELD VA
200 PM EDT MON JUL 28 2014

Note: "fair" indicates few or no clouds below 12,000 feet with no
significant weather and/or obstructions to visibility. * = Denotes
station may not report precipitation (e.g., rain,snow,etc.),
thunder or fog.

VAZ042-051-052>054-056-281900-
NORTHERN VIRGINIA

CITY           SKY/WX    TMP DP  RH WIND       PRES   REMARKS
WASH NATIONAL  PTSUNNY   84  57  39 W16G26    29.68S
DULLES         PTSUNNY   80  55  42 W16G26    29.70S
FORT BELVOIR   MOSUNNY   82  59  44 NW18G26   29.69S
QUANTICO       MOSUNNY   85  56  37 NW20G28   29.70S
FREDERICKSBRG* MOSUNNY   84  60  44 W13G21    29.69S
STAFFORD*      SUNNY     85  57  38 W13G23    29.74S
WARRENTON      MOSUNNY   85  67  54 W10G16    29.71S
CULPEPER*      SUNNY    N/A N/A N/A W13G18    29.72R
MANASSAS*      NOT AVBL
LEESBURG*      MOSUNNY   79  61  53 W21G28    29.71S
WINCHESTER     CLOUDY    73  57  56 W20G31    29.72F
$$

VAZ048-049-060>072-079>083-281900-
CENTRAL AND SOUTH CENTRAL VIRGINIA...AND NORTH CENTRAL NORTH CAROLINA

CITY           SKY/WX    TMP DP  RH WIND       PRES   REMARKS
RICHMOND       MOSUNNY   85  57  38 W15G31    29.72S
CHESTERFIELD*  PTCLDY    86  57  37 W15       29.75S
HANOVER        PTSUNNY   84  59  42 W10       29.73S
TAPPAHANNOCK*  PTSUNNY   82  53  36 W12G20    29.71R
CHARLOTTSVILLE PTSUNNY   80  55  42 W8        29.75R
ORANGE*        MOSUNNY   82  55  39 SW12G18   29.75R
LOUISA*        MOSUNNY   81  57  44 W10G21    29.73R
FARMVILLE*     PTSUNNY   82  55  39 W7        29.75S
SOUTH HILL*    PTSUNNY   84  61  45 W6        29.83S
ROANOKE RAPIDS NOT AVBL
RALEIGH        MOSUNNY   83  61  47 W7        29.81S
$$

VAZ088>098-281900-
SOUTHEAST VIRGINIA

CITY           SKY/WX    TMP DP  RH WIND       PRES   REMARKS
NORFOLK        MOSUNNY   87  62  43 W10G22    29.71S
VIRGINIA BEACH PTSUNNY   86  64  47 W16       29.70S
NORFOLK NAVAL  MOSUNNY   88  65  46 W12G22    29.72S
WEST POINT*    PTSUNNY   88  59  37 W12       29.71S
NEWPORT NEWS   MOSUNNY   89  62  40 W9G22     29.71S
LANGLEY AFB    PTSUNNY   88  66  47 W16G23    29.70S
FORT EUSTIS    MOSUNNY   84  65  52 W13       29.69F
WILLIAMSBURG*  SUNNY     90  66  45 W13G21    29.72S
FRANKLIN*      MOSUNNY   86  63  45 W12G21    29.74S
WAKEFIELD      MOSUNNY   87  61  41 W9G18     29.73F
$$

VAZ020-022-025-037-045-281900-
WESTERN AND SOUTHWEST VIRGINIA

CITY           SKY/WX    TMP DP  RH WIND       PRES   REMARKS
STAUNTON*      PTSUNNY   77  52  41 W12G17    29.80S
HOT SPRINGS VA   N/A     61  50  68 W15G25    29.93R
LYNCHBURG      CLOUDY    77  58  51 VRB6G16   29.83S
DANVILLE       PTSUNNY   83  57  41 NW16      29.82R
MARTINSVILLE   PTSUNNY   83  54  36 NW13      29.86S
ROANOKE        CLOUDY    77  54  44 W17G26    29.85S
BLACKSBURG     CLOUDY    72  61  68 W8G16       N/A
DUBLIN*        CLOUDY    74  57  55 NW15G24   29.91S
MARION*        CLOUDY   N/A N/A N/A W17G24    29.97S
HILLSVILLE*    CLOUDY    70  53  55 W14G24    29.94S
RICHLANDS*     CLOUDY    70  60  69 W10       29.98S
WISE*          CLOUDY    70  55  60 W9        30.01S
ABINGDON*      CLOUDY    73  57  57 NW10G17   29.97S
$$

MDZ021>025-VAZ099-100-281900-
SOUTHERN MARYLAND AND THE DELMARVA PENINSULA

CITY           SKY/WX    TMP DP  RH WIND       PRES   REMARKS
PATUXENT RIVER PTSUNNY   86  60  41 W14G22    29.67S
BAY BRIDGE APT   N/A     81  57  44 W15       29.65S
LEONARDTOWN    PTSUNNY   81  59  47 NW9       29.70S
DOVER          PTSUNNY   80  62  53 W18       29.62S
GEORGETOWN     PTSUNNY   84  60  44 W12G20    29.65R
EASTON         PTSUNNY   84  61  45 W15G23    29.69S
CAMBRIDGE      SUNNY     82  55  39 W9G22     29.66S
SALISBURY      NOT AVBL
OCEAN CITY     MOSUNNY   86  63  45 NW13G23   29.64S
WALLOPS ISLAND MOSUNNY   89  63  41 W14G24    29.67R
ACCOMACK*        N/A     86  63  45 NW12G18   29.68S
$$

NCZ012>017-030>032-281900-
EASTERN NORTH CAROLINA

CITY           SKY/WX    TMP DP  RH WIND       PRES   REMARKS
ELIZABETH CITY MOSUNNY   86  65  49 W20       29.74R
AHOSKIE*       MOSUNNY   85  64  49 NW6       29.76F
EDENTON*       SUNNY     87  65  48 W14G22    29.76S
CURRITUCK*     MOSUNNY   89  60  37 W12G20    29.73S
KILL DEVIL HLS SUNNY     87  65  47 W15G24    29.73S
MANTEO         NOT AVBL
CAPE HATTERAS  MOSUNNY   86  76  71 SW12      29.78F HX  96
GOLDSBORO      MOSUNNY   90  69  51 W13       29.76F
WASHINGTON     SUNNY     87  65  48 W12G17    29.77F
GREENVILLE     MOSUNNY   88  66  48 W9G16     29.80F
NEW BERN       MOSUNNY   89  70  53 W5        29.79F
WILMINGTON     PTSUNNY   88  73  61 SW6       29.80F HX  95
$$

VAZ048-281900-
ELSEWHERE

CITY           SKY/WX    TMP DP  RH WIND       PRES   REMARKS
HARRISBURG PA  PTSUNNY   78  59  51 W20G26    29.62S
BALTIMORE      MOSUNNY   84  55  36 W29G39    29.64F
ANNAPOLIS      PTSUNNY   81  60  48 NW9       29.65S
ANDREWS AFB    MOSUNNY   83  58  42 W18G28    29.67S
WILMINGTON DE  MOSUNNY   81  60  48 W20G28    29.62S
PHILADELPHIA   MOSUNNY   83  60  45 W21G29    29.60R
WILDWOOD NJ*   CLOUDY    81  63  54 W14G20    29.64R
ATLANTIC CITY  MOSUNNY   83  63  50 W15       29.59S
HENDERSON NC   PTSUNNY   84  54  35 W8        29.80S
GREENSBORO     MOSUNNY   84  58  40 NW12G20   29.83S
ROCKY MOUNT      N/A     88  66  48 W9        29.79S
FAYETTEVILLE   MOSUNNY   95  60  31 W14G26    29.78F HX  95
CHARLOTTE      MOSUNNY   88  61  40 W14G23    29.84F
$$

VAZ100-281900-
MARINE

STATION/POSITION TIME  TEMP    WIND        PRES    WAVE   SWELL
                       AIR SEA DIR/SP/G            HT/PER HT/PER
                 (UTC) (F)     (DEG/KT/KT) (MB)    (FT/S) (FT/S)
44066 TX TWR #4  1800   76 75  230/ 14/ 16 1001.6S   5/ 6   3/10
CAPE MAY NJ      1800   80 78  300/ 15/ 18 1002.9R
LEWES DE         1800   82 72  280/ 18/ 25 1003.1R
15NM E FENWICK I 1800   78 74              1003.7R   3/ 6
OCEAN-CITY-INLET 1800   82 70  300/ 11/ 16 1003.4R
WACHAPREAGUE VA  1800   86 81  260/ 10/ 14 1005.0S
THOMAS POINT MD  1800   80 79  280/ 20/ 23 1004.4F
GOOSES REEF MD   1800   80     290/ 16/ 21 1005.1S
COVE POINT MD    1800   80     320/ 11/ 15 1004.7R
SOLOMONS ISLAND  1800      81                N/A
BISHOPS HEAD MD  1800   81 81  300/ 15/ 18 1004.6S
PINEY POINT MD   1800          320/ 16/ 19   N/A
POTOMAC MD       1800   81     310/ 16/ 19 1004.3R
CAMBRIDGE MD     1800   81 80  270/ 15/ 22 1004.2S
LEWISETTA VA     1800   82 80  320/ 12/ 16 1005.0S
RAPPAHANNOCK LGT 1800          280/ 15/ 17 1005.8S
STINGRAY PT      1800   83     290/ 12/ 16 1006.2R
YORK RVR RNG VA  1800   84     280/ 17/ 18 1004.9F
YORKTOWN VA      1800   85 80  250/ 13/ 20 1005.3F
JAMESTOWN VA     1800   82     290/ 16/ 21   N/A
DOMINION TERM VA 1800   83     270/ 15/ 20 1006.1R
KIPTOPEKE VA     1800      82  300/ 14/ 18   N/A
CHES BAY BRIDGE  1800   83 77  260/ 15/ 18 1005.3S
CAPE HENRY VA    1800   85     280/ 14/ 19 1004.6F
WILLOUBY STN VA  1800          260/ 20/ 21 1004.9F
S CRANEY ISL VA  1800          260/ 11/ 20 1006.2R
CAPE HENRY BUOY  1800      78                N/A     3/ 6
1ST LANDING BUOY 1800   83     270/ 16/ 19 1005.7S
CAPE CHARLES BUO 1800      74                N/A     3/ 6
OFFSHORE WE BUOY 1800      78                N/A     4/ 6
64NM E OF VA BCH 1800   81 78  240/ 17/ 19 1005.5R   5/ 7   2/ 8
DUCK PIER NC     1800   84 60  240/ 19/ 23 1006.1F
44056 DUCK FRF   1800                        N/A     2/ 9
OREGON INLET NC  1800   87 82  250/ 15/ 19 1007.1F
HATTERAS NC      1800   84 81  220/  8/ 12 1008.9F
DIAMOND SHLS NC  1800          VRB 17/ 19  1008.4F   5/ 6   2/ 9
CAPE LOOKOUT NC  1700   83     230/ 10/ 13 1009.3F
$$



USA.gov is the U.S. government's official web portal to all federal, state and local government web resources and services.